User: anonymous   Login
Location: Unspecified
(0.0000°N, 0.0000°E)
Time: 10:54:30
(UTC+02:00)
Language:

Iridium 33 - Orbit

View from above orbital plane
View from above orbital plane
View from above satellite
View from above satellite

Ground track
Ground track

The orbit data is extracted from the following two-line orbital elements,

1 24946U 97051C   18111.69754203 +.00000077 +00000-0 +20705-4 0  9997
2 24946 086.3890 157.6614 0006528 333.2442 026.8416 14.33599425078224
Epoch (UTC): 21 April 2018 16:44:27
Eccentricity: 0.0006528
inclination: 86.3890°
perigee height: 775 km
apogee height: 784 km
right ascension of ascending node: 157.6614°
argument of perigee: 333.2442°
revolutions per day: 14.33599425
mean anomaly at epoch: 26.8416°
orbit number at epoch: 7822

The dashed part of the orbit path shows where the satellite is in the earth's shadow,  

DLR